This is the latest recevied weather packets stored in our database for station/object W3TMB. If no packets are shown the sender has not sent any weather packets the latest 10 day(s).
| Time | Temp. | Humidity | Pressure | Rain* | Wind** | Luminosity | Snow |
|---|---|---|---|---|---|---|---|
| 1777947289 | 16.67° C | 71% | 1004.5 hPa | 0 mm | - | 0 W/m² | - |
| 1777946984 | 16.67° C | 69% | 1004.4 hPa | 0 mm | - | 0 W/m² | - |
| 1777946680 | 16.67° C | 68% | 1004.4 hPa | 0 mm | - | 0 W/m² | - |
| 1777946377 | 17.22° C | 67% | 1004.6 hPa | 0 mm | - | 0 W/m² | - |
| 1777946074 | 17.22° C | 65% | 1004.5 hPa | 0 mm | - | 0 W/m² | - |
| 1777945771 | 17.78° C | 64% | 1004.4 hPa | 0 mm | - | 0 W/m² | - |
| 1777945468 | 17.78° C | 63% | 1004.6 hPa | 0 mm | - | 0 W/m² | - |
| 1777945165 | 17.78° C | 62% | 1004.4 hPa | 0 mm | - | 0 W/m² | - |
| 1777944862 | 18.33° C | 61% | 1004.5 hPa | 0 mm | - | 0 W/m² | - |
| 1777944560 | 18.89° C | 60% | 1004.3 hPa | 0 mm | - | 0 W/m² | - |
| 1777944258 | 19.44° C | 57% | 1004.5 hPa | 0 mm | - | 0 W/m² | - |
| 1777943954 | 19.44° C | 55% | 1004.3 hPa | 0 mm | - | 0 W/m² | - |
| 1777943651 | 20° C | 54% | 1004.4 hPa | 0 mm | - | 0 W/m² | - |
| 1777943347 | 19.44° C | 56% | 1004.1 hPa | 0 mm | - | 0 W/m² | - |
| 1777943043 | 20° C | 55% | 1003.9 hPa | 0 mm | - | 0 W/m² | - |
| 1777942739 | 20.56° C | 53% | 1003.8 hPa | 0 mm | - | 0 W/m² | - |
| 1777942436 | 20.56° C | 50% | 1003.8 hPa | 0 mm | - | 0 W/m² | - |
| 1777942134 | 21.11° C | 50% | 1003.8 hPa | 0 mm | - | 0 W/m² | - |
| 1777941829 | 21.11° C | 49% | 1003.7 hPa | 0 mm | - | 0 W/m² | - |
| 1777941527 | 21.11° C | 49% | 1003.8 hPa | 0 mm | - | 0 W/m² | - |
| 1777941224 | 21.11° C | 49% | 1003.7 hPa | 0 mm | - | 0 W/m² | - |
| 1777940920 | 21.67° C | 47% | 1003.7 hPa | 0 mm | - | 0 W/m² | - |
| 1777940617 | 21.67° C | 47% | 1003.7 hPa | 0 mm | - | 0 W/m² | - |
| 1777940316 | 21.67° C | 47% | 1003.6 hPa | 0 mm | - | 0 W/m² | - |
| 1777940012 | 21.67° C | 48% | 1003.6 hPa | 0 mm | - | 0 W/m² | - |
* Rain latest hour (hover to see other rain measurements)
** Current wind speed in m/s (hover to see current wind gust speed)